This is the latest recevied weather packets stored in our database for station/object KC1OEK-13. If no packets are shown the sender has not sent any weather packets the latest 10 day(s).
| Time | Temp. | Humidity | Pressure | Rain* | Wind** | Luminosity | Snow |
|---|---|---|---|---|---|---|---|
| 1788012411 | 21.67° C | 50% | 1026 hPa | 0 mm | - | 485 W/m² | - |
| 1788012104 | 21.11° C | 54% | 1026 hPa | 0 mm | - | 473 W/m² | - |
| 1788011799 | 21.11° C | 56% | 1025.8 hPa | 0 mm | - | 461 W/m² | - |
| 1788011497 | 20.56° C | 60% | 1025.9 hPa | 0 mm | - | 449 W/m² | - |
| 1788011193 | 20.56° C | 61% | 1026 hPa | 0 mm | - | 437 W/m² | - |
| 1788010887 | 20° C | 63% | 1026.1 hPa | 0 mm | - | 424 W/m² | - |
| 1788010587 | 20.56° C | 64% | 1025.8 hPa | 0 mm | - | 410 W/m² | - |
| 1788010286 | 20° C | 63% | 1026 hPa | 0 mm | - | 378 W/m² | - |
| 1788009981 | 20° C | 67% | 1026 hPa | 0 mm | - | 384 W/m² | - |
| 1788009680 | 19.44° C | 65% | 1026 hPa | 0 mm | - | 373 W/m² | - |
| 1788009379 | 19.44° C | 67% | 1026 hPa | 0 mm | - | 358 W/m² | - |
| 1788009079 | 19.44° C | 69% | 1025.8 hPa | 0 mm | - | 343 W/m² | - |
| 1788008775 | 18.89° C | 70% | 1025.7 hPa | 0 mm | - | 327 W/m² | - |
| 1788008474 | 18.89° C | 71% | 1025.8 hPa | 0 mm | - | 312 W/m² | - |
| 1788008171 | 18.89° C | 73% | 1025.6 hPa | 0 mm | - | 299 W/m² | - |
| 1788007869 | 18.33° C | 72% | 1025.8 hPa | 0 mm | - | 286 W/m² | - |
| 1788007564 | 18.33° C | 73% | 1025.8 hPa | 0 mm | - | 273 W/m² | - |
| 1788007264 | 18.33° C | 73% | 1025.8 hPa | 0 mm | - | 281 W/m² | - |
| 1788006963 | 18.33° C | 74% | 1025.8 hPa | 0 mm | - | 273 W/m² | - |
| 1788006657 | 17.78° C | 76% | 1025.6 hPa | 0 mm | - | 258 W/m² | - |
| 1788006352 | 17.22° C | 83% | 1025.6 hPa | 0 mm | - | 241 W/m² | - |
| 1788006051 | 16.67° C | 84% | 1025.6 hPa | 0 mm | - | 219 W/m² | - |
| 1788005745 | 16.11° C | 85% | 1025.5 hPa | 0 mm | - | 197 W/m² | - |
| 1788005440 | 15.56° C | 89% | 1025.6 hPa | 0 mm | - | 176 W/m² | - |
| 1788005138 | 14.44° C | 93% | 1025.6 hPa | 0 mm | - | 156 W/m² | - |
* Rain latest hour (hover to see other rain measurements)
** Current wind speed in m/s (hover to see current wind gust speed)